Location: Unspecified
(0.0000°N, 0.0000°E)
Time: 09:39:15
(UTC+00:00)

Vanguard 3 - Pass Details

Date: 16 October 2022
Orbit: 509 x 3255 km, 33.3° (Epoch: 29 November)

Event Time Altitude Azimuth Distance (km) Brightness Sun altitude
Rises 19:52:38 0° 223° (SW) 7,005 12.6 -31.3°
Reaches altitude 10° 19:59:04 10° 210° (SSW) 6,156 12.0 -32.9°
Maximum altitude 20:13:36 24° 163° (SSE) 4,919 11.0 -36.5°
Enters shadow 20:19:30 21° 138° (SE) 4,914 10.8 -37.9°
